SCOUT B DEB, 37862

Orbit data source: Space-Track

SCOUT B DEB, 37862 is space debris in LEO originally from a launch on Tue, 10 Aug 1965 UTC launched from the Wallops Island (WLPIS). Debris objects in space refer to the collection of defunct objects orbiting the Earth. Examples of debris include non-operational satellites, rocket bodies, and fragments generated from explosions, collisions, or faulty payload assembly.

Loading next visibility...
Identifier
37862, 1965-063AE
Orbit
LEO
Country
Flag of USUS
Related business
Manufacturer
Unknown
Mission
Spacecraft
Bus & Motor
Unknown
Mass
Unknown
Launch date (UTC)
1965-08-10 (61 years ago)
Launch vehicle
Unknown
Launch site
Wallops Island (WLPIS)
Object type
Payload
Rocket body
Debris
Shape & HBR
Unknown shape, 0.1 m
Radar Cross Section
Small (<0.1 m²)

Expand to show TLE details & history
Last TLE update: 1 day ago

TLE from 1 day ago
0 SCOUT B DEB
1 37862U 65063AE  26103.29455058  .00002933  00000-0  57165-2 0  9999
2 37862  69.0729 211.7207 0767575 356.9775   2.6746 12.57914977742303
Epoch: 2026-04-13T07:04Z
TLE epoch observation values (Epoch: 2026-04-13T07:04:09.170Z)
Latitude
-0.00002°
Longitude
-95.80473°
Altitude
834.923 km
Speed
7.715 km/s
True Right ascension
14h 06m 52s
True Declination
0° 00' 00"
Sunlit
Object was in full shadow at epoch
Visualization orbit readout
Latitude
Unknown
Longitude
Unknown
Altitude
Unknown
Speed
Unknown
Apparent Right ascension
Unknown
Apparent Declination
Unknown
Sunlit
N/A
Visualization observer readout
Local Sidereal Time
15:39:21
Azimuth
Unknown
Elevation
Unknown
Doppler factor
Unknown
Orbital elements
Apogee altitude
2,029.13 km
Perigee altitude
830.493 km
Semi-major axis
7,807.948 km
Eccentricity
0.07676
Inclination
69.0729°
RAAN
211.7207°
Arg. of periapsis
356.9775°
True anomaly
3.12834°
Mean anomaly
2.6746°
Eccentric anomaly
2.89686°
Mean motion
3.14585 °/min
Orbital period
114.44 mins
BSTAR
0.0057165
Loading maneuver chart data...
Computing Atmospheric mass density...
Loading historical data...
Loading historical data...
Loading historical data...
Loading historical data...
Loading historical data...
Loading historical data...
Loading historical data...

Documentation

Showing up to 5 results
|